Theta_e
313 313 312 311 310 310 310 311 311 311 312 312 313 311 308 307 307 306 307 308 309 309 308 310 313 315 315 314 314 312 315 317 317 318 319 318 319 319 318 316 317 316 317 316 315 314 314
312 312 312 311 311 310 310 311 311 311 312 310 311 310 308 307 307 306 307 308 308 310 309 309 312 313 312 315 311 314 313 316 316 317 317 317 318 315 317 317 316 314 316 317 315 314 315
311 312 311 311 311 310 310 310 311 311 310 310 309 309 308 307 306 306 307 308 307 309 309 309 310 311 312 312 312 313 314 315 316 316 316 316 316 315 316 317 315 315 316 314 315 315 316
311 311 311 311 311 310 310 310 310 310 311 310 309 308 308 307 306 306 307 310 308 308 309 310 309 310 312 310 311 310 313 315 314 315 316 314 315 315 316 314 315 314 314 316 314 315 316
310 311 310 310 311 311 311 310 311 310 310 311 309 308 308 307 306 306 307 310 310 309 310 312 310 310 311 310 311 310 312 313 313 314 315 315 314 315 316 316 315 313 315 314 315 315 316
310 310 310 310 310 311 311 311 310 309 311 311 308 307 307 307 306 306 308 311 309 311 313 312 309 309 309 310 310 310 312 313 313 312 315 313 313 317 316 313 318 314 315 314 314 315 315
309 310 310 310 310 310 311 311 311 311 309 310 307 307 307 306 306 305 308 311 306 309 309 309 310 310 310 309 309 309 310 311 313 313 313 312 311 314 317 313 313 313 313 314 314 314 316
309 309 309 310 310 310 310 310 310 310 310 309 305 305 305 305 305 305 309 308 308 309 310 310 309 309 309 309 311 310 309 312 312 315 314 312 313 312 315 316 317 314 313 312 313 313 316
308 308 309 309 309 309 309 310 309 310 310 309 306 303 303 304 305 308 310 308 307 308 312 311 310 310 311 310 311 311 310 311 312 313 314 313 313 313 314 316 318 315 312 311 314 313 312
308 307 308 308 308 309 309 310 310 310 310 309 308 304 303 303 308 310 310 309 309 309 304 308 313 312 310 311 312 310 310 312 311 313 314 313 313 315 314 317 316 316 311 312 314 313 314
307 308 307 308 308 308 308 307 306 308 310 310 309 306 304 303 308 310 309 308 309 307 304 307 313 311 311 313 312 311 310 311 312 313 313 312 315 315 316 316 313 313 312 313 313 313 311
306 307 307 307 307 306 308 308 308 309 309 310 309 308 304 310 309 309 308 309 308 304 302 309 311 313 313 313 312 312 312 311 312 314 313 313 312 312 312 313 310 312 314 313 312 311 311
306 306 306 307 308 307 307 306 306 308 308 307 309 306 305 308 310 309 308 308 306 304 306 310 311 313 314 313 315 314 315 315 313 314 315 314 314 312 312 312 312 313 316 320 319 314 314
306 305 306 307 307 307 307 306 305 305 306 306 305 304 306 307 310 307 309 303 303 307 309 309 310 309 310 313 313 314 313 310 308 309 312 314 313 311 310 314 314 314 317 315 321 314 311
305 305 305 305 306 307 305 305 305 305 305 306 307 307 310 310 308 308 303 303 305 307 310 310 310 309 309 309 309 309 309 309 308 308 314 311 310 310 310 310 311 317 313 310 308 305 308
305 306 306 306 305 305 305 305 305 305 305 306 310 311 311 311 308 308 304 309 309 309 310 310 311 308 309 309 309 308 309 308 310 309 307 309 311 310 311 310 311 312 308 308 308 316 316
306 305 306 305 304 305 305 305 305 305 304 309 311 308 310 307 307 303 303 306 310 309 309 311 310 311 309 309 309 309 310 309 309 309 308 307 306 308 310 309 310 307 308 305 306 309 312
306 306 307 306 305 306 305 305 305 305 304 308 309 309 308 307 308 303 306 310 307 310 309 310 309 309 309 309 309 310 310 309 308 309 309 306 306 307 309 307 307 308 309 305 309 305 304
307 306 307 307 307 307 306 306 305 305 305 304 305 305 307 307 310 305 307 309 309 309 309 309 310 309 308 309 311 310 310 308 308 308 308 307 306 304 305 305 305 307 309 307 304 303 306
307 308 308 308 308 308 308 307 305 305 305 305 304 309 304 301 302 306 309 308 310 308 309 308 308 307 307 307 307 310 309 309 308 307 308 307 305 306 307 306 305 308 309 307 305 304 305
307 308 309 309 310 309 309 308 305 305 306 307 303 303 303 305 304 305 306 306 307 308 307 306 308 307 307 308 307 307 307 305 307 306 306 305 305 304 305 304 307 308 308 307 306 306 306
308 309 310 311 311 312 310 308 306 305 307 306 305 307 302 303 304 307 305 307 308 308 307 308 308 307 305 307 308 308 306 305 306 304 303 302 305 303 304 303 303 304 305 305 306 306 305
310 310 311 311 311 311 311 310 307 305 307 305 305 304 304 305 304 305 306 308 308 307 307 306 307 306 307 307 306 305 304 303 304 305 304 302 302 303 305 303 305 307 304 306 306 306 303
311 312 312 312 312 311 311 311 308 305 305 306 304 305 306 308 304 305 307 308 308 307 308 307 305 307 305 302 302 303 304 304 304 304 302 303 303 302 304 307 308 307 301 302 304 305 303
312 312 312 313 313 312 311 312 309 306 305 304 304 305 305 307 305 306 307 307 306 306 307 307 305 303 300 303 304 305 305 305 305 305 305 302 303 304 308 306 307 305 302 303 304 306 302
312 313 313 314 313 312 312 312 310 307 306 305 304 306 304 305 305 305 306 307 306 305 306 307 304 302 303 302 304 309 307 307 307 306 305 304 301 304 304 306 307 307 303 303 304 305 303
312 312 312 313 312 312 312 312 311 308 307 306 304 304 306 306 304 304 305 306 304 304 305 305 305 305 302 303 306 307 308 304 306 307 309 305 304 305 306 306 304 303 303 303 307 304 302
311 312 312 312 311 311 312 313 311 308 306 306 306 304 305 303 304 304 303 304 303 303 306 304 303 304 303 304 305 306 305 304 304 304 308 306 305 306 305 309 304 301 303 305 302 301 301
306 307 307 307 307 308 311 313 312 309 306 305 307 304 304 302 303 302 302 301 301 301 302 302 304 304 303 304 302 302 305 301 302 303 303 305 305 306 305 305 302 300 303 301 300 301 302
Wind_Speed
10 11 11 11 11 10 10 9 9 8 9 8 10 11 12 13 15 17 18 15 12 10 12 15 10 8 7 1 4 16 18 2 17 19 16 8 6 6 5 6 4 4 4 9 7 10 6
9 10 10 10 11 11 10 10 9 9 9 8 10 11 12 13 15 18 19 15 14 11 9 13 10 7 1 2 9 11 13 3 13 16 16 9 3 2 6 7 8 3 8 9 6 7 7
9 10 11 11 11 11 10 9 10 9 8 9 10 12 12 13 15 19 16 17 13 10 8 11 9 6 2 3 7 9 5 2 4 4 3 10 4 2 3 4 8 4 4 8 10 6 5
9 11 12 13 13 12 10 10 9 9 9 10 12 13 13 13 15 18 16 15 8 6 7 5 8 3 3 4 5 8 7 8 7 5 3 5 3 2 5 2 0 6 5 3 5 8 6
9 10 12 12 13 13 11 10 10 10 10 11 12 12 13 13 14 17 14 9 4 3 4 4 5 1 2 7 4 9 8 2 6 6 7 4 3 3 4 4 2 1 4 5 4 8 3
8 10 12 13 13 14 13 12 11 11 11 11 12 12 13 13 13 15 12 7 3 3 2 2 2 2 2 2 4 8 4 3 2 6 2 3 4 3 3 4 9 8 6 5 8 5 3
7 9 12 13 13 14 14 14 13 12 12 12 11 12 11 12 13 13 10 5 4 2 1 3 2 3 4 3 3 5 4 3 2 2 3 7 2 5 4 4 5 2 5 5 4 4 4
8 9 11 13 13 14 14 14 15 14 13 12 11 11 12 12 12 12 6 1 2 2 4 4 3 2 2 2 1 2 2 0 0 4 3 3 2 12 0 3 2 3 4 5 0 3 3
8 9 10 12 13 14 15 15 15 15 15 14 12 11 11 11 12 5 3 1 2 4 1 2 4 3 3 3 2 1 2 1 1 2 3 4 6 2 4 2 2 2 4 4 5 4 3
8 9 10 10 13 14 15 15 16 16 17 17 15 11 10 10 3 1 2 1 2 4 4 3 3 2 4 1 1 2 1 1 1 5 3 5 4 1 6 5 5 3 8 5 3 5 4
8 9 10 11 12 13 15 16 16 17 18 19 19 11 7 6 4 2 2 1 4 2 4 3 3 5 6 4 5 2 1 1 2 5 2 4 2 5 6 5 3 6 7 8 7 4 4
7 8 10 11 12 14 15 16 16 18 19 20 20 13 4 1 3 3 2 5 2 5 3 2 4 4 3 4 5 5 5 4 2 3 2 4 5 3 4 5 6 3 2 4 4 4 1
8 9 10 12 12 14 15 16 17 18 20 22 17 7 5 5 2 5 4 3 4 5 3 3 4 4 4 4 4 6 5 4 5 1 1 3 5 3 0 4 2 3 3 2 1 1 5
11 9 10 12 13 13 15 17 17 18 22 22 9 2 4 4 5 4 5 4 5 4 5 3 3 4 5 6 5 4 2 3 4 2 2 4 2 3 3 1 2 3 5 5 5 5 3
12 11 10 11 13 14 14 16 18 19 22 16 3 3 3 5 7 7 4 4 6 5 3 4 7 2 3 3 4 3 3 2 2 1 4 4 2 2 3 5 1 6 5 4 7 3 4
13 13 11 11 12 13 13 15 17 20 22 8 2 2 2 7 7 5 4 3 3 3 2 1 2 1 2 4 0 4 4 2 2 1 1 1 2 2 0 3 9 6 4 3 3 4 2
15 13 11 8 7 9 11 12 16 19 19 2 2 1 4 5 7 4 3 5 3 3 2 3 2 4 3 3 3 1 1 1 1 3 2 1 3 3 1 4 5 5 2 5 4 4 5
16 13 12 6 4 5 8 10 14 17 15 1 2 1 6 9 2 0 2 2 1 3 2 3 2 3 2 4 4 2 2 2 1 2 1 2 4 3 4 2 3 3 2 4 4 0 1
19 15 12 8 4 4 7 9 12 14 14 2 2 2 4 2 1 2 3 2 2 1 1 2 2 1 2 3 3 2 3 1 2 1 2 1 1 3 7 4 2 1 1 3 5 3 1
22 19 14 11 6 3 6 10 12 13 11 2 2 1 2 2 0 5 2 2 2 2 3 2 3 2 3 2 3 1 4 2 3 2 1 1 2 3 5 4 3 2 2 2 5 3 2
24 20 16 12 7 4 6 10 12 12 7 6 1 3 3 2 2 2 1 0 0 2 1 1 1 3 3 2 3 4 4 6 2 7 1 1 2 2 3 4 1 1 3 3 3 4 2
26 23 17 11 7 4 5 8 12 12 3 2 3 3 2 1 2 1 3 0 1 1 2 3 1 3 5 2 0 2 2 3 1 5 4 4 1 2 4 4 5 2 3 5 3 4 6
28 24 19 14 10 5 5 6 10 10 1 2 1 2 3 1 0 3 3 2 1 1 1 2 2 2 2 0 2 2 3 1 1 2 3 2 3 2 1 4 3 2 2 3 3 2 6
28 24 21 17 12 7 4 5 7 9 7 3 1 3 3 2 2 3 3 2 2 2 1 1 2 1 1 4 4 3 3 2 3 4 1 2 3 2 2 3 1 3 2 4 4 4 4
27 24 21 17 14 10 5 5 4 6 4 4 1 1 2 2 1 1 3 3 3 1 1 0 1 2 1 3 2 2 2 2 1 2 4 3 3 3 3 1 3 1 3 5 5 4 6
26 23 20 17 14 12 10 7 4 3 3 2 5 2 2 4 3 1 2 3 3 2 2 1 1 2 2 2 3 2 1 2 3 3 2 3 4 3 1 2 2 2 1 1 2 3 5
26 22 21 21 19 18 15 11 7 4 2 1 3 2 3 2 2 2 3 4 4 2 2 1 0 1 2 2 2 1 2 1 1 2 1 2 3 2 1 0 5 4 3 1 3 5 6
22 23 21 19 18 18 18 15 11 7 3 1 3 2 2 2 2 2 2 2 2 2 3 3 3 2 2 2 2 1 1 2 2 2 2 2 3 1 2 3 3 6 3 6 4 2 5
18 17 14 13 13 16 20 18 13 10 6 2 2 3 2 3 2 1 1 1 2 1 4 0 2 3 4 3 1 2 1 1 1 2 1 2 5 3 7 5 3 6 3 3 4 4 5
Wind_Direction
359 352 344 338 329 318 299 291 295 300 303 309 320 329 332 339 341 336 334 326 317 313 343 357 354 31 100 99 291 329 336 245 195 204 209 206 212 185 202 186 238 251 271 245 281 287 272
4 357 346 338 329 322 309 300 296 290 297 299 307 314 322 330 335 335 334 326 311 289 312 346 350 342 337 246 335 334 334 176 195 198 218 200 208 299 234 228 173 239 224 262 297 301 290
358 355 349 348 339 327 319 312 302 300 298 296 299 303 315 323 330 335 339 335 314 284 296 333 350 326 316 285 356 350 353 10 147 179 223 237 213 331 231 184 222 253 249 284 260 269 270
357 355 352 353 346 338 332 321 311 309 305 297 294 298 308 315 325 335 336 344 330 294 291 327 348 288 242 330 7 13 34 87 87 114 131 102 128 286 248 249 43 158 165 200 268 191 259
351 349 352 353 349 344 342 335 332 321 309 302 293 294 300 306 321 334 334 350 350 311 281 324 324 18 281 341 24 2 4 100 77 78 58 102 53 263 254 122 46 114 191 193 274 203 205
349 349 347 348 347 346 347 349 340 325 320 309 296 290 295 301 315 333 331 333 265 1 305 269 250 48 332 316 323 335 20 55 159 100 18 62 22 276 162 134 195 178 186 179 197 207 178
339 343 342 340 345 343 346 350 345 335 324 317 297 291 293 300 309 327 320 314 1 328 101 295 160 138 300 283 324 337 346 1 67 117 209 126 187 250 207 97 38 75 152 172 188 204 129
327 332 331 333 337 341 343 348 347 342 334 323 309 299 296 298 304 315 290 215 218 232 306 196 137 109 307 248 222 276 341 136 153 220 156 92 243 250 141 206 22 342 180 209 225 179 126
322 325 326 325 331 334 337 344 343 341 339 329 314 301 299 298 305 286 217 217 277 182 231 215 184 188 207 188 350 307 335 305 344 288 192 176 188 190 175 287 197 194 182 202 168 130 53
306 316 324 326 324 329 331 335 337 336 336 332 322 303 302 308 298 113 232 319 169 159 62 268 207 228 132 236 60 19 358 328 111 245 269 258 281 232 154 223 177 242 191 202 158 117 181
280 303 314 320 326 326 326 330 328 330 330 328 324 307 294 292 302 163 122 107 146 99 39 247 163 176 149 171 167 165 339 355 219 208 194 246 235 188 184 218 168 240 176 195 164 146 103
279 285 301 311 320 323 324 326 330 328 325 325 322 307 274 234 205 144 105 154 134 45 284 348 134 200 205 191 190 123 194 208 243 187 219 278 268 164 210 160 197 34 56 58 67 94 57
268 280 286 300 310 312 319 327 330 330 330 332 324 301 214 195 165 161 155 102 34 106 296 277 219 178 230 209 211 189 194 197 175 150 159 26 325 335 210 151 161 104 161 53 136 83 204
267 272 280 287 297 311 316 325 330 335 337 334 318 234 197 198 171 164 140 56 79 253 254 321 283 246 217 160 240 210 259 269 204 198 79 129 295 348 25 289 112 129 128 184 160 172 199
257 265 276 286 293 295 310 323 330 335 339 334 293 174 180 196 196 174 82 57 204 206 258 306 318 311 287 241 200 186 227 262 242 221 184 137 53 216 87 41 241 124 209 197 111 25 84
251 264 272 287 291 300 306 320 331 338 343 335 192 217 196 166 178 139 80 226 224 232 315 279 293 62 319 297 12 177 202 255 274 274 231 131 73 20 1 103 325 189 184 79 9 129 120
248 255 266 279 288 303 312 323 335 342 349 346 170 55 162 168 162 64 153 224 251 237 202 228 292 299 301 320 334 20 247 278 263 293 322 94 99 239 218 182 198 213 213 59 112 114 153
244 246 248 250 271 313 325 333 341 346 359 334 118 70 174 166 55 63 153 214 305 271 192 287 252 262 269 310 348 358 242 261 319 291 203 117 135 118 259 254 228 246 137 108 104 71 81
236 229 230 233 248 312 332 342 347 350 352 304 164 179 166 213 156 298 273 270 226 293 286 293 272 214 294 294 333 16 349 301 355 332 231 275 42 57 347 348 336 3 124 116 102 75 60
228 219 219 234 236 288 331 345 350 352 338 201 105 86 327 64 241 146 187 248 277 228 263 259 276 333 334 329 349 53 354 327 337 326 186 5 105 191 189 191 136 175 169 105 105 90 182
224 214 211 221 230 277 318 342 352 353 333 178 70 225 192 225 301 128 146 218 286 320 288 338 346 33 290 308 345 13 342 340 341 352 83 83 92 60 6 2 39 132 158 172 98 107 97
218 213 206 211 232 259 314 341 352 2 357 192 151 140 9 183 298 131 4 174 110 165 14 329 86 326 15 110 349 317 331 41 14 324 21 349 155 110 358 356 31 56 59 89 85 104 83
215 205 202 206 220 241 302 336 357 7 99 133 149 109 113 284 109 109 211 183 159 124 169 106 297 316 1 288 225 244 267 217 329 335 333 39 109 73 297 351 332 346 215 177 137 143 140
211 208 209 208 208 225 274 321 358 9 35 93 102 119 103 218 148 194 191 150 153 149 225 359 37 271 291 328 291 263 249 121 50 15 1 114 96 78 197 352 46 265 207 193 128 148 136
209 211 210 210 208 216 244 290 336 7 29 86 88 161 135 159 168 162 165 149 128 102 84 71 327 235 290 356 45 20 334 327 337 10 1 31 119 77 113 145 275 228 202 144 165 220 192
211 212 211 209 211 229 239 256 279 328 5 113 66 84 110 126 238 174 164 175 165 178 0 278 273 310 47 80 58 48 351 289 328 6 53 69 72 108 100 101 179 272 109 71 66 305 183
209 212 217 220 226 235 232 232 242 262 329 169 110 56 108 122 261 158 188 181 142 119 149 276 237 39 46 52 74 90 298 211 333 308 311 16 7 96 64 299 295 253 150 124 112 234 165
208 207 208 207 217 224 224 225 226 234 253 232 132 63 121 140 282 349 332 154 100 138 160 197 71 356 50 75 127 223 176 266 341 259 203 186 128 215 71 46 314 161 106 170 216 48 138
145 182 184 193 210 218 216 219 217 226 220 205 158 148 104 110 221 348 32 345 336 3 137 45 190 159 175 97 183 110 267 5 176 280 159 262 186 189 179 213 244 208 205 216 166 153 175